This is the latest recevied weather packets stored in our database for station/object KK6LVQ-13. If no packets are shown the sender has not sent any weather packets the latest 10 day(s).
| Time | Temp. | Humidity | Pressure | Rain* | Wind** | Luminosity | Snow |
|---|---|---|---|---|---|---|---|
| 1788136012 | 76° F | 56% | 762.6 mmHg | 0 in | - | 253 W/m² | - |
| 1788135707 | 77° F | 54% | 762.7 mmHg | 0 in | - | 268 W/m² | - |
| 1788135403 | 77° F | 54% | 762.7 mmHg | 0 in | - | 284 W/m² | - |
| 1788135098 | 80° F | 50% | 762.7 mmHg | 0 in | - | 299 W/m² | - |
| 1788134795 | 77° F | 53% | 762.7 mmHg | 0 in | - | 315 W/m² | - |
| 1788134495 | 78° F | 51% | 762.6 mmHg | 0 in | - | 331 W/m² | - |
| 1788134193 | 78° F | 53% | 762.6 mmHg | 0 in | - | 347 W/m² | - |
| 1788133888 | 79° F | 52% | 762.7 mmHg | 0 in | - | 363 W/m² | - |
| 1788133583 | 78° F | 51% | 762.7 mmHg | 0 in | - | 382 W/m² | - |
| 1788133279 | 78° F | 52% | 762.5 mmHg | 0 in | - | 397 W/m² | - |
| 1788132974 | 78° F | 52% | 762.6 mmHg | 0 in | - | 413 W/m² | - |
| 1788132670 | 79° F | 52% | 762.7 mmHg | 0 in | - | 429 W/m² | - |
| 1788132366 | 80° F | 50% | 762.6 mmHg | 0 in | - | 443 W/m² | - |
| 1788132062 | 80° F | 50% | 762.7 mmHg | 0 in | - | 458 W/m² | - |
| 1788131757 | 80° F | 50% | 762.8 mmHg | 0 in | - | 472 W/m² | - |
| 1788131456 | 79° F | 50% | 762.7 mmHg | 0 in | - | 485 W/m² | - |
| 1788131152 | 80° F | 48% | 762.8 mmHg | 0 in | - | 500 W/m² | - |
| 1788130846 | 80° F | 49% | 762.9 mmHg | 0 in | - | 514 W/m² | - |
| 1788130541 | 79° F | 49% | 762.8 mmHg | 0 in | - | 525 W/m² | - |
| 1788130236 | 79° F | 49% | 762.8 mmHg | 0 in | - | 537 W/m² | - |
| 1788129934 | 79° F | 50% | 763 mmHg | 0 in | - | 548 W/m² | - |
| 1788129631 | 79° F | 50% | 762.8 mmHg | 0 in | - | 560 W/m² | - |
| 1788129328 | 79° F | 50% | 762.8 mmHg | 0 in | - | 573 W/m² | - |
| 1788129027 | 79° F | 50% | 762.8 mmHg | 0 in | - | 584 W/m² | - |
| 1788128722 | 79° F | 50% | 763.1 mmHg | 0 in | - | 597 W/m² | - |
* Rain latest hour (hover to see other rain measurements)
** Current wind speed in m/s (hover to see current wind gust speed)